FW5449 Weather Reports


Display with metric or nautical units.
time (UTC)temp
F
wind
direction
speed
MPH
gust
MPH
rain 1hr
in
rain 24hr
in
rain mn
in
humidity
%
barometer
mb
20260905133613 54 159 0.0 1.0 0.00 0.51 0.02 95 1016.3
20260905133101 54 159 0.0 0.0 0.00 0.51 0.02 95 1016.3
20260905132600 54 159 0.0 0.0 0.00 0.51 0.02 95 1016.4
20260905132056 54 159 0.0 0.0 0.00 0.51 0.02 95 1016.4
20260905131555 54 159 0.0 0.0 0.01 0.51 0.02 95 1016.4
20260905131050 54 159 0.0 0.0 0.01 0.51 0.02 95 1016.3
20260905130551 54 160 0.0 0.0 0.01 0.51 0.02 95 1016.3
20260905130050 54 160 0.0 0.0 0.01 0.51 0.02 95 1016.3
20260905125812 54 160 0.0 0.0 0.01 0.51 0.02 95 1016.3
20260905125258 54 160 0.0 0.0 0.01 0.51 0.02 95 1016.2
20260905124538 54 160 0.0 0.0 0.02 0.51 0.02 95 1016.2
20260905124020 54 160 0.0 0.0 0.02 0.51 0.02 95 1016.1
20260905123510 54 160 0.0 1.0 0.02 0.51 0.02 95 1016.2
20260905123205 54 160 0.0 1.0 0.02 0.51 0.02 95 1016.1
20260905122433 54 160 0.0 0.0 0.02 0.51 0.02 95 1016.1
20260905121931 54 160 0.0 1.0 0.02 0.52 0.02 95 1016.1
20260905121428 54 160 0.0 2.0 0.01 0.51 0.01 95 1016.0
20260905120917 54 160 0.0 2.0 0.01 0.51 0.01 95 1016.1
20260905120414 54 205 1.0 2.0 0.01 0.51 0.01 95 1016.2
20260905115909 54 247 1.0 2.0 0.01 0.51 0.01 95 1016.1
20260905115347 55 273 1.0 3.0 0.01 0.51 0.01 95 1016.1
20260905114848 55 273 0.0 3.0 0.01 0.51 0.01 95 1016.2
20260905114350 55 281 0.0 3.0 0.00 0.50 0.00 95 1016.2
20260905113849 55 161 0.0 0.0 0.00 0.50 0.00 95 1016.2
20260905113552 55 161 0.0 0.0 0.00 0.50 0.00 94 1016.1
20260905113040 55 161 0.0 0.0 0.00 0.50 0.00 94 1016.1
20260905112307 55 161 0.0 0.0 0.00 0.50 0.00 94 1016.2
20260905111810 55 161 0.0 0.0 0.00 0.50 0.00 94 1016.1
20260905111304 55 161 0.0 1.0 0.00 0.50 0.00 94 1016.1
20260905110743 55 161 0.0 3.0 0.00 0.50 0.00 94 1016.0
20260905110227 55 161 1.0 3.0 0.00 0.50 0.00 94 1016.0
20260905105713 55 149 1.0 3.0 0.00 0.50 0.00 94 1015.9
20260905105356 55 149 2.0 4.0 0.00 0.50 0.00 94 1015.9
20260905104626 55 155 2.0 4.0 0.00 0.50 0.00 94 1016.0
20260905104112 55 147 1.0 4.0 0.00 0.50 0.00 94 1016.0
20260905103608 55 146 1.0 3.0 0.00 0.50 0.00 94 1015.9
20260905103107 55 126 1.0 3.0 0.00 0.50 0.00 94 1016.0
20260905102604 55 136 1.0 4.0 0.00 0.50 0.00 94 1016.0
20260905102101 55 164 1.0 4.0 0.00 0.50 0.00 94 1016.1
20260905101549 55 153 1.0 4.0 0.00 0.50 0.00 94 1016.0
20260905101040 55 124 1.0 2.0 0.00 0.50 0.00 94 1016.0
20260905100541 55 147 1.0 3.0 0.00 0.50 0.00 94 1016.1
20260905100038 54 145 2.0 4.0 0.00 0.50 0.00 94 1016.0
20260905095806 54 155 1.0 4.0 0.00 0.50 0.00 94 1016.1
20260905095039 54 136 1.0 3.0 0.00 0.50 0.00 94 1016.0
20260905094535 54 136 1.0 3.0 0.00 0.50 0.00 93 1016.0
20260905094248 54 135 2.0 3.0 0.00 0.50 0.00 93 1016.0
20260905093529 54 141 2.0 4.0 0.00 0.50 0.00 93 1016.0
20260905093032 55 149 2.0 5.0 0.00 0.50 0.00 93 1016.0
20260905092525 55 135 2.0 5.0 0.00 0.50 0.00 93 1016.1
20260905092025 55 134 2.0 4.0 0.00 0.50 0.00 93 1016.0
20260905091523 55 128 2.0 4.0 0.00 0.50 0.00 93 1016.1
20260905091019 55 129 2.0 4.0 0.00 0.50 0.00 93 1016.0
20260905090520 55 135 2.0 4.0 0.00 0.50 0.00 93 1015.9
20260905090019 55 133 3.0 4.0 0.00 0.50 0.00 93 1015.9
20260905085512 55 145 3.0 5.0 0.00 0.50 0.00 93 1015.9
20260905085009 55 135 3.0 5.0 0.00 0.50 0.00 93 1015.9
20260905084509 55 149 3.0 5.0 0.00 0.50 0.00 93 1016.0
20260905084007 55 155 3.0 5.0 0.00 0.50 0.00 93 1015.9
20260905083505 55 131 3.0 5.0 0.00 0.50 0.00 93 1015.8
20260905083003 54 150 2.0 4.0 0.00 0.50 0.00 93 1015.8
20260905082500 54 143 2.0 4.0 0.00 0.50 0.00 93 1015.7
20260905081957 55 133 3.0 5.0 0.00 0.50 0.00 93 1015.7
20260905081455 55 137 3.0 6.0 0.00 0.50 0.00 93 1015.7
20260905080955 55 135 3.0 6.0 0.00 0.50 0.00 93 1015.6
20260905080453 55 139 2.0 4.0 0.00 0.50 0.00 93 1015.6
20260905075952 55 132 2.0 4.0 0.00 0.51 0.00 93 1015.5
20260905075947 55 137 2.0 4.0 0.00 0.52 0.00 93 1015.6
20260905074946 55 132 2.0 4.0 0.00 0.54 0.00 93 1015.6
20260905074444 55 137 2.0 4.0 0.00 0.56 0.00 93 1015.5
20260905073946 55 121 2.0 4.0 0.00 0.58 0.00 93 1015.5
20260905073705 55 126 2.0 4.0 0.00 0.59 0.00 93 1015.6
20260905072938 55 151 3.0 4.0 0.00 0.60 0.00 93 1015.5
20260905072437 56 139 2.0 4.0 0.00 0.62 0.00 93 1015.5
20260905071939 56 126 2.0 4.0 0.00 0.63 0.00 94 1015.6
20260905071658 56 151 2.0 4.0 0.00 0.64 0.00 94 1015.6
20260905070941 55 133 2.0 4.0 0.00 0.64 0.00 94 1015.4
20260905070434 55 128 2.0 4.0 0.00 0.64 0.00 94 1015.4
20260905065932 55 137 2.0 5.0 0.00 0.64 0.64 94 1015.3
20260905065427 55 135 2.0 5.0 0.00 0.64 0.64 94 1015.5
20260905064919 55 126 1.0 3.0 0.00 0.64 0.64 94 1015.3
20260905064912 55 126 1.0 2.0 0.00 0.64 0.64 94 1015.3
20260905063917 55 126 1.0 2.0 0.00 0.65 0.64 94 1015.3
20260905063414 55 126 0.0 2.0 0.00 0.65 0.64 94 1015.3
20260905062912 55 126 0.0 2.0 0.00 0.65 0.64 94 1015.2
20260905062406 56 126 1.0 2.0 0.00 0.65 0.64 94 1015.3
20260905061905 56 126 1.0 3.0 0.00 0.65 0.64 94 1015.4
20260905061355 56 126 1.0 3.0 0.00 0.65 0.64 94 1015.3
20260905060854 56 126 1.0 3.0 0.00 0.66 0.64 93 1015.3
20260905060348 56 127 2.0 4.0 0.00 0.66 0.64 93 1015.3
20260905055846 56 134 2.0 4.0 0.00 0.66 0.64 93 1015.3
20260905055337 56 124 2.0 4.0 0.00 0.66 0.64 93 1015.4
20260905055102 56 147 2.0 4.0 0.00 0.66 0.64 93 1015.3
20260905054551 56 148 2.0 4.0 0.00 0.66 0.64 93 1015.4
20260905054050 56 137 2.0 4.0 0.00 0.67 0.64 93 1015.3
20260905053334 56 135 3.0 4.0 0.00 0.67 0.64 93 1015.3
20260905052829 56 133 3.0 4.0 0.00 0.67 0.64 93 1015.3
20260905052327 56 131 2.0 4.0 0.00 0.68 0.64 93 1015.3
20260905051824 56 151 2.0 4.0 0.00 0.68 0.64 93 1015.2
20260905051812 56 139 2.0 4.0 0.00 0.69 0.64 93 1015.2
20260905051039 56 122 1.0 4.0 0.00 0.70 0.64 93 1015.2
20260905050316 56 142 1.0 3.0 0.00 0.70 0.64 93 1015.1
20260905045816 56 138 1.0 3.0 0.00 0.71 0.64 93 1015.0
20260905045535 56 138 1.0 3.0 0.00 0.71 0.64 93 1015.1
20260905044816 56 139 1.0 3.0 0.00 0.72 0.64 93 1015.0
20260905044540 56 138 1.0 3.0 0.00 0.72 0.64 93 1015.1
20260905043806 56 151 1.0 3.0 0.00 0.72 0.64 93 1015.0
20260905043522 57 151 1.0 3.0 0.00 0.72 0.64 93 1015.0
20260905042748 57 126 1.0 4.0 0.00 0.72 0.64 92 1015.0
20260905042243 57 108 1.0 6.0 0.00 0.72 0.64 93 1014.9
20260905041740 57 120 2.0 6.0 0.00 0.72 0.64 93 1014.8
20260905041239 57 118 1.0 4.0 0.00 0.72 0.64 93 1014.7
20260905040738 57 132 0.0 1.0 0.00 0.72 0.64 93 1014.7
20260905040233 57 132 1.0 1.0 0.00 0.72 0.64 93 1014.7
20260905035732 57 132 1.0 1.0 0.00 0.72 0.64 93 1014.7
20260905035230 57 132 1.0 1.0 0.00 0.72 0.64 93 1014.7
20260905034731 57 132 1.0 1.0 0.00 0.72 0.64 93 1014.6
20260905034229 57 116 1.0 1.0 0.00 0.72 0.64 93 1014.6
20260905033727 57 126 1.0 1.0 0.00 0.72 0.64 93 1014.5
20260905033231 57 122 1.0 1.0 0.00 0.72 0.64 93 1014.4
20260905032715 57 122 1.0 1.0 0.00 0.72 0.64 93 1014.2
20260905032444 57 122 1.0 1.0 0.00 0.72 0.64 93 1014.3
20260905031717 57 122 1.0 1.0 0.00 0.73 0.64 93 1014.2
20260905031214 57 122 0.0 1.0 0.00 0.73 0.64 93 1014.1
20260905031201 57 104 0.0 1.0 0.01 0.73 0.64 93 1014.0
20260905030428 57 96 1.0 1.0 0.01 0.73 0.64 93 1014.1
20260905025700 57 135 1.0 1.0 0.01 0.73 0.64 93 1014.0
20260905025435 57 135 0.0 1.0 0.01 0.73 0.64 92 1014.0
20260905024647 57 135 0.0 1.0 0.02 0.73 0.64 92 1014.0
20260905024137 57 135 1.0 1.0 0.02 0.73 0.64 92 1014.0
20260905023626 57 135 1.0 1.0 0.02 0.73 0.64 92 1013.9
20260905023109 57 135 1.0 1.0 0.03 0.73 0.64 91 1013.8
20260905022606 57 133 1.0 1.0 0.03 0.73 0.64 91 1013.8
20260905022324 58 144 1.0 1.0 0.03 0.73 0.64 91 1013.8
20260905021602 58 145 1.0 1.0 0.03 0.73 0.64 92 1013.8
20260905021101 58 134 1.0 1.0 0.03 0.73 0.64 92 1013.8
20260905020823 58 129 1.0 1.0 0.02 0.72 0.63 92 1013.8
20260905020313 58 127 1.0 1.0 0.02 0.72 0.63 92 1013.8
20260905015556 58 149 1.0 1.0 0.02 0.72 0.63 92 1013.6
20260905015054 58 139 1.0 1.0 0.01 0.71 0.63 92 1013.5
20260905014550 58 140 1.0 1.0 0.01 0.71 0.62 93 1013.6
20260905014050 59 135 1.0 1.0 0.01 0.71 0.62 93 1013.5
20260905013807 59 123 1.0 1.0 0.01 0.71 0.62 93 1013.5
20260905013313 59 128 1.0 1.0 0.01 0.70 0.62 93 1013.4
20260905012546 59 127 1.0 1.0 0.01 0.71 0.61 92 1013.4
20260905012047 59 94 1.0 1.0 0.01 0.71 0.61 92 1013.4
20260905011546 59 131 1.0 1.0 0.02 0.73 0.61 92 1013.3
20260905011044 59 147 1.0 1.0 0.02 0.74 0.61 92 1013.3
20260905010807 59 101 1.0 1.0 0.02 0.75 0.61 92 1013.4
20260905010041 59 131 1.0 1.0 0.03 0.75 0.61 92 1013.3
20260905005541 59 116 1.0 1.0 0.03 0.77 0.61 92 1013.3
20260905005037 59 124 1.0 1.0 0.03 0.78 0.61 92 1013.3
20260905004532 59 133 1.0 1.0 0.03 0.78 0.61 92 1013.1
20260905004032 59 117 1.0 1.0 0.03 0.79 0.61 92 1013.1
20260905003531 58 118 1.0 1.0 0.04 0.79 0.61 92 1013.2
20260905003032 58 126 0.0 1.0 0.03 0.78 0.60 92 1013.1
20260905002531 58 126 0.0 1.0 0.04 0.78 0.60 92 1012.9
20260905002032 58 120 1.0 1.0 0.04 0.77 0.60 92 1013.0
20260905001533 58 137 1.0 1.0 0.05 0.77 0.59 93 1012.8
20260905001031 58 132 1.0 1.0 0.07 0.77 0.59 92 1012.8
20260905000531 58 157 0.0 1.0 0.08 0.77 0.59 92 1012.8
20260905000033 58 130 0.0 1.0 0.08 0.76 0.58 92 1012.8
20260904235530 58 133 0.0 1.0 0.08 0.76 0.58 92 1012.8
20260904235025 58 127 0.0 1.0 0.08 0.76 0.58 93 1012.8
20260904234757 58 132 1.0 1.0 0.08 0.76 0.58 92 1012.9
20260904234026 58 131 1.0 1.0 0.09 0.76 0.58 92 1012.8
20260904233521 58 124 1.0 1.0 0.08 0.75 0.58 93 1012.8
20260904233022 58 122 1.0 1.0 0.08 0.75 0.57 92 1012.8
20260904232512 58 137 1.0 1.0 0.07 0.74 0.56 92 1012.9
20260904232015 58 139 1.0 1.0 0.07 0.73 0.55 92 1012.8
20260904231512 58 151 1.0 1.0 0.06 0.71 0.53 92 1012.8
20260904231216 58 128 1.0 1.0 0.06 0.69 0.51 92 1012.8
20260904231059 58 157 1.0 1.0 0.06 0.70 0.52 91 1012.8
20260904230443 58 184 1.0 1.0 0.06 0.68 0.50 92 1012.7
20260904225500 58 195 1.0 1.0 0.06 0.68 0.50 91 1012.7
20260904224947 58 181 1.0 1.0 0.07 0.68 0.50 91 1012.7
20260904224450 58 174 1.0 1.0 0.07 0.68 0.50 91 1012.6
20260904223944 58 133 1.0 1.0 0.07 0.67 0.49 91 1012.6
20260904223444 58 150 1.0 1.0 0.09 0.67 0.49 91 1012.5
20260904222944 58 163 1.0 1.0 0.11 0.67 0.49 91 1012.6
20260904222435 58 155 1.0 1.0 0.12 0.67 0.49 91 1012.6
20260904221933 58 139 1.0 1.0 0.12 0.66 0.48 91 1012.6
20260904221700 59 164 1.0 1.0 0.12 0.65 0.47 92 1012.6
20260904220935 59 174 1.0 1.0 0.11 0.64 0.46 92 1012.6
20260904220433 58 147 1.0 1.0 0.11 0.63 0.45 92 1012.4
20260904215934 58 188 1.0 1.0 0.10 0.62 0.44 93 1012.5
20260904215427 58 141 0.0 1.0 0.11 0.67 0.44 93 1012.4
20260904214917 58 224 0.0 1.0 0.11 0.68 0.43 93 1012.5
20260904214416 58 227 1.0 1.0 0.12 0.76 0.43 93 1012.5
20260904213906 58 234 1.0 1.0 0.11 0.78 0.42 92 1012.5
20260904213350 58 197 1.0 2.0 0.10 0.77 0.40 92 1012.6
20260904213111 59 243 1.0 3.0 0.09 0.75 0.38 93 1012.5
20260904212608 59 237 2.0 3.0 0.09 0.74 0.37 92 1012.4
20260904211853 59 239 1.0 3.0 0.08 0.73 0.36 92 1012.3
20260904211822 59 237 1.0 3.0 0.08 0.72 0.35 92 1012.2
20260904210840 59 238 1.0 3.0 0.08 0.72 0.35 92 1012.3
20260904210605 59 262 0.0 1.0 0.07 0.71 0.34 92 1012.2
20260904205842 59 262 0.0 3.0 0.07 0.71 0.34 92 1012.2
20260904205334 59 263 1.0 3.0 0.07 0.70 0.33 91 1012.2
20260904205055 59 262 1.0 2.0 0.06 0.69 0.33 91 1012.1
20260904204334 59 238 0.0 1.0 0.05 0.68 0.32 91 1012.0
20260904203832 59 242 0.0 1.0 0.05 0.68 0.31 91 1012.0
20260904203328 59 242 1.0 3.0 0.04 0.67 0.30 90 1011.9
20260904202820 59 242 1.0 3.0 0.03 0.66 0.29 89 1011.9
20260904202753 60 245 1.0 3.0 0.02 0.65 0.28 90 1011.9
20260904202044 60 195 1.0 4.0 0.02 0.65 0.28 89 1011.9
20260904201314 60 193 1.0 4.0 0.01 0.64 0.27 87 1011.9
20260904200814 60 195 1.0 4.0 0.01 0.64 0.27 88 1012.0
20260904200311 60 174 2.0 6.0 0.01 0.64 0.27 88 1012.0
20260904195808 60 192 3.0 6.0 0.01 0.64 0.27 86 1012.0
20260904195307 60 198 4.0 10.0 0.00 0.63 0.26 86 1011.9
20260904195033 60 202 5.0 10.0 0.00 0.63 0.26 84 1012.0
20260904194524 60 189 5.0 12.0 0.00 0.63 0.26 83 1012.0
20260904193805 61 162 5.0 12.0 0.00 0.63 0.26 81 1012.0
20260904193306 61 210 4.0 9.0 0.00 0.63 0.26 81 1012.0
20260904192807 61 147 4.0 8.0 0.00 0.63 0.26 82 1012.0
20260904192306 61 173 5.0 10.0 0.00 0.63 0.26 81 1011.9
20260904192031 61 166 6.0 10.0 0.00 0.63 0.26 80 1011.9
20260904191301 61 178 6.0 13.0 0.00 0.63 0.26 81 1011.9
20260904190800 61 133 6.0 13.0 0.00 0.63 0.26 81 1011.9
20260904190300 61 172 5.0 8.0 0.00 0.63 0.26 82 1011.9
20260904185759 61 145 5.0 10.0 0.00 0.63 0.26 83 1011.9
20260904185306 61 153 5.0 10.0 0.00 0.63 0.26 82 1011.9
20260904184801 61 153 4.0 10.0 0.00 0.63 0.26 83 1011.8
20260904184517 61 172 5.0 11.0 0.00 0.63 0.26 85 1011.9
20260904183755 60 140 6.0 11.0 0.00 0.63 0.26 85 1011.8
20260904183256 60 155 7.0 11.0 0.00 0.63 0.26 83 1011.8
20260904182755 60 153 6.0 11.0 0.00 0.63 0.26 84 1011.7
20260904182254 60 162 5.0 9.0 0.01 0.63 0.26 84 1011.7
20260904182016 60 126 5.0 9.0 0.01 0.63 0.26 85 1011.7
20260904181254 60 163 5.0 9.0 0.01 0.63 0.26 86 1011.7
20260904181013 60 135 5.0 9.0 0.01 0.63 0.26 87 1011.5
20260904180251 59 165 5.0 8.0 0.01 0.63 0.26 87 1011.6
20260904175752 59 137 4.0 8.0 0.01 0.63 0.26 87 1011.6
20260904175250 58 135 4.0 8.0 0.01 0.63 0.26 89 1011.5
20260904174753 58 116 3.0 7.0 0.02 0.63 0.26 89 1011.6
20260904174249 58 151 3.0 7.0 0.02 0.63 0.26 89 1011.5
20260904173750 58 160 4.0 7.0 0.03 0.63 0.26 89 1011.5
20260904173246 57 153 4.0 8.0 0.04 0.63 0.26 89 1011.5
20260904172747 58 135 4.0 8.0 0.05 0.63 0.26 89 1011.5
20260904172247 58 131 3.0 8.0 0.05 0.62 0.25 90 1011.4
20260904171748 58 135 2.0 5.0 0.06 0.62 0.25 91 1011.4
20260904171250 57 134 2.0 5.0 0.08 0.62 0.25 91 1011.4
20260904170745 57 95 2.0 6.0 0.09 0.62 0.25 92 1011.4
20260904170245 57 106 2.0 6.0 0.09 0.62 0.25 92 1011.2
20260904165747 56 124 1.0 4.0 0.09 0.62 0.25 92 1011.2
20260904165244 56 117 1.0 4.0 0.09 0.62 0.25 92 1011.2
20260904164745 56 98 1.0 4.0 0.08 0.61 0.25 92 1011.2
20260904164243 56 110 1.0 4.0 0.09 0.61 0.24 92 1011.1
20260904163741 56 146 1.0 3.0 0.08 0.60 0.23 91 1011.2
20260904163238 56 146 1.0 3.0 0.07 0.59 0.22 91 1011.3
20260904162738 56 146 2.0 3.0 0.06 0.58 0.21 90 1011.3
20260904162506 56 146 1.0 3.0 0.05 0.57 0.20 90 1011.2
20260904161958 56 135 0.0 2.0 0.04 0.56 0.19 90 1011.1
20260904161226 56 135 0.0 1.0 0.02 0.54 0.18 90 1011.1
20260904161140 56 135 0.0 4.0 0.01 0.53 0.16 89 1011.1
20260904160425 56 136 0.0 4.0 0.01 0.53 0.16 88 1011.0
20260904155641 56 136 1.0 5.0 0.01 0.53 0.16 88 1011.0
20260904155129 56 136 1.0 5.0 0.01 0.53 0.16 87 1011.0
20260904154611 56 122 1.0 3.0 0.00 0.52 0.15 89 1011.0
20260904154103 56 116 1.0 5.0 0.00 0.52 0.15 88 1010.9
20260904153602 56 120 1.0 6.0 0.00 0.52 0.15 88 1010.9
20260904153054 56 138 1.0 6.0 0.00 0.52 0.15 89 1010.8
20260904152549 56 135 1.0 4.0 0.00 0.52 0.15 88 1010.8
20260904152048 56 140 2.0 5.0 0.00 0.52 0.15 88 1010.8
20260904151549 56 119 2.0 7.0 0.00 0.52 0.15 88 1010.7
20260904151310 55 127 3.0 7.0 0.00 0.52 0.15 88 1010.7
20260904150817 55 151 3.0 7.0 0.00 0.52 0.15 89 1010.6
20260904150304 55 122 2.0 7.0 0.00 0.52 0.15 89 1010.6
20260904145544 55 139 3.0 7.0 0.00 0.52 0.15 89 1010.5
20260904145047 55 135 3.0 7.0 0.00 0.52 0.15 89 1010.5
20260904144546 55 104 2.0 6.0 0.00 0.52 0.15 89 1010.3
20260904144044 55 122 2.0 4.0 0.00 0.52 0.15 90 1010.4
20260904143544 55 100 2.0 4.0 0.00 0.52 0.15 90 1010.4
20260904143044 54 123 2.0 5.0 0.00 0.52 0.15 90 1010.3
20260904142545 54 129 2.0 5.0 0.00 0.52 0.15 91 1010.2
20260904142039 54 135 1.0 4.0 0.00 0.52 0.15 91 1010.1
20260904141536 54 133 1.0 4.0 0.00 0.52 0.15 92 1010.0
20260904141037 54 122 0.0 2.0 0.00 0.52 0.15 92 1010.0
20260904140757 54 110 0.0 2.0 0.00 0.52 0.15 93 1009.9
20260904140030 53 113 0.0 3.0 0.00 0.52 0.15 93 1009.9
20260904135529 53 99 0.0 3.0 0.00 0.52 0.15 93 1009.9
20260904135030 53 82 0.0 2.0 0.00 0.52 0.15 93 1009.8
20260904134531 53 82 0.0 1.0 0.00 0.52 0.15 93 1009.8
20260904134033 53 145 0.0 1.0 0.00 0.52 0.15 93 1009.7